map of HKT home
HKT - Airport
Location
City:  Phuket, Phuket, Thailand
Name:Phuket International Airport
ICAO:VTSP
IATA:HKT

Details
Type:Airport (Aerodrome, Airfield)
Use:Public/Civil, International (customs port of entry)
Latitude:806'48"N (8.113200)
Longitude:9819'01"E (98.316872)
Datum:WGS 1984
Elevation:82 ft (25 m)
Variation:0.41W (WMM2015 magnetic declination)
0.02 annual change
Runways:1
Longest:9843 × 148 ft (3000 × 45 m), paved

Time
Time Zone:UTC+7
Local Time:

Weather
METAR:VTSP 180430Z 08009KT 350V120 9999 FEW020 30/22 Q1011 NOSIG
TAF:VTSP 172300Z 1800/1906 00000KT 8000 FEW020 SCT100
BECMG 1802/1804 08010KT 9999 FEW020
TEMPO 1806/1812 VRB10G20KT 5000 TSRA FEW018TCU SCT020 BKN100
BECMG 1814/1816 00000KT 8000 FEW020 SCT100
BECMG 1900/1902 10010KT 9999

Related Locations
Nearby:
Farthest:SPYO: 12295 mi / 19787 km
Pacasmayo [Pacasmayo Airport], LAL, PE

Find:

   beyond  
but within

Other Information
Maps:
NOTAMs:
Links:
Sources:

  
  • flag of Thailand
  

Sectional Chart

Flight Planning
at skyvector.com

Satellite Image

Google Maps Satellite view

 

Copyright © 2004-2019 Karl L. Swartz. All rights reserved.
The Great Circle Mapper name and logo are trademarks of the Great Circle Mapper.
All other trademarks mentioned herein belong to their respective owners.
Please see credits for attibutions and further copyright information.

  Follow gcmap on Facebook Follow gcmap on Twitter Follow gcmap on Google+ GCmap on LinkedIn

hCard Microformat

Geo Microformat